�N����,����,�~����,�C��,���x,�C��,����,���ϕ���,�ő�u�ԕ���,�ő厞����,���˗�,�I�_���x,�n�����x,�ő啗���N��,DTYPE
"16/08/15","00:10",0.0,24.3,94.2,997.7,285.7,0.6,0.9,256.4,0.00,23.3,26.9,"00:06:32",1
"16/08/15","00:20",0.0,24.2,94.3,997.9,295.6,0.6,1.0,343.6,0.00,23.3,26.8,"00:15:28",1
"16/08/15","00:30",0.0,24.2,94.4,997.4,311.5,0.7,1.1,332.8,0.00,23.3,26.7,"00:29:20",1
"16/08/15","00:40",0.0,24.2,94.4,997.9,332.1,0.8,1.3,335.0,0.00,23.3,26.7,"00:33:52",1
"16/08/15","00:50",0.0,24.1,94.4,997.9,298.4,0.7,0.9,308.5,0.00,23.2,26.6,"00:43:36",1
"16/08/15","01:00",0.0,24.0,94.6,997.9,303.0,0.6,1.1,301.3,0.00,23.1,26.5,"00:56:56",1
"16/08/15","01:10",0.0,23.9,94.6,997.4,298.3,0.6,1.6,320.2,0.00,23.0,26.3,"01:01:20",1
"16/08/15","01:20",0.0,23.9,94.7,997.4,285.1,0.6,1.0,252.7,0.00,23.0,26.4,"01:17:52",1
"16/08/15","01:30",0.0,23.8,94.7,997.7,284.8,0.6,0.6,258.4,0.00,22.9,26.3,"01:23:28",1
"16/08/15","01:40",0.0,23.7,94.7,997.2,290.2,0.6,0.8,278.3,0.00,22.8,26.3,"01:32:40",1
"16/08/15","01:50",0.0,23.6,94.8,997.4,299.2,0.6,1.0,315.7,0.00,22.8,26.2,"01:43:44",1
"16/08/15","02:00",0.0,23.6,94.9,997.2,299.0,0.7,1.1,314.0,0.00,22.8,26.3,"01:54:00",1
"16/08/15","02:10",0.0,23.6,95.0,997.4,297.2,0.7,0.9,315.7,0.00,22.8,26.3,"02:07:12",1
"16/08/15","02:20",0.0,23.5,95.1,997.4,311.0,1.0,1.2,317.5,0.00,22.7,26.2,"02:14:00",1
"16/08/15","02:30",0.0,23.5,95.2,997.4,305.3,0.8,1.2,317.5,0.00,22.7,26.1,"02:26:56",1
"16/08/15","02:40",0.0,23.5,95.3,997.4,301.4,0.7,1.1,313.1,0.00,22.7,26.1,"02:35:44",1
"16/08/15","02:50",0.0,23.4,95.4,997.4,289.1,0.7,1.0,320.8,0.00,22.7,25.9,"02:40:32",1
"16/08/15","03:00",0.0,23.4,95.4,997.2,277.2,0.7,0.9,251.7,0.00,22.7,26.1,"02:53:04",1
"16/08/15","03:10",0.0,23.4,95.4,997.2,303.4,0.8,1.2,324.6,0.00,22.7,25.9,"03:04:24",1
"16/08/15","03:20",0.0,23.4,95.6,997.2,298.2,0.7,1.1,314.0,0.00,22.7,25.8,"03:18:08",1
"16/08/15","03:30",0.0,23.5,95.6,997.2,322.7,1.0,1.3,345.3,0.00,22.8,26.0,"03:24:48",1
"16/08/15","03:40",0.0,23.4,95.5,997.0,304.6,0.7,1.1,305.6,0.00,22.7,26.0,"03:35:28",1
"16/08/15","03:50",0.0,23.4,95.6,996.7,290.1,0.6,0.8,299.1,0.00,22.7,25.9,"03:40:16",1
"16/08/15","04:00",0.0,23.3,95.7,996.7,298.4,0.8,1.2,324.1,0.00,22.6,25.9,"03:55:04",1
"16/08/15","04:10",0.0,23.4,95.8,997.2,284.8,0.7,0.8,281.9,0.00,22.7,25.8,"04:00:16",1
"16/08/15","04:20",0.0,23.3,95.8,997.0,294.0,0.6,0.9,316.3,0.00,22.6,25.8,"04:14:48",1
"16/08/15","04:30",0.0,23.4,95.9,997.0,284.1,0.6,0.8,280.5,0.00,22.7,25.9,"04:23:52",1
"16/08/15","04:40",0.0,23.4,95.8,997.0,289.7,0.6,1.0,319.6,0.00,22.7,25.7,"04:39:04",1
"16/08/15","04:50",0.0,23.4,95.8,997.0,304.7,0.7,1.1,316.9,0.00,22.7,25.7,"04:40:40",1
"16/08/15","05:00",0.0,23.4,95.9,997.0,291.6,0.6,1.0,324.3,0.00,22.7,25.9,"04:50:56",1
"16/08/15","05:10",0.0,23.4,95.9,997.0,278.8,0.7,0.9,269.2,0.00,22.7,25.8,"05:05:36",1
"16/08/15","05:20",0.0,23.4,95.9,996.7,288.2,0.6,0.9,310.8,0.00,22.7,25.5,"05:10:48",1
"16/08/15","05:30",0.0,23.5,95.9,996.7,294.0,0.5,0.9,249.5,0.00,22.8,25.8,"05:20:48",1
"16/08/15","05:40",0.0,23.5,95.9,996.7,329.4,0.7,1.1,332.3,0.00,22.8,25.8,"05:32:08",1
"16/08/15","05:50",0.0,23.9,95.9,996.7,324.1,0.8,1.4,325.5,0.00,23.2,25.7,"05:43:36",1
"16/08/15","06:00",0.0,24.0,95.8,996.7,308.8,0.6,0.9,311.1,0.00,23.3,25.7,"05:53:36",1
"16/08/15","06:10",0.0,24.2,95.7,996.7,299.8,0.6,0.9,323.7,0.01,23.5,25.8,"06:01:20",1
"16/08/15","06:20",0.0,24.3,95.5,997.0,314.9,0.6,0.9,335.3,0.01,23.6,25.7,"06:17:04",1
"16/08/15","06:30",0.0,24.4,95.4,997.2,311.8,0.6,1.3,359.5,0.00,23.7,25.9,"06:20:24",1
"16/08/15","06:40",0.0,24.6,95.0,997.2,283.8,0.5,0.6,314.1,0.01,23.8,25.8,"06:32:16",1
"16/08/15","06:50",0.0,24.6,94.8,997.0,288.6,0.5,0.6,299.1,0.00,23.8,25.9,"06:40:16",1
"16/08/15","07:00",0.0,24.8,94.3,997.0,284.5,0.5,1.2,240.5,0.01,23.9,25.9,"06:59:36",1
"16/08/15","07:10",0.0,25.0,93.9,997.0,323.9,0.3,0.9,357.1,0.02,24.0,25.9,"07:08:24",1
"16/08/15","07:20",0.0,25.1,93.3,997.2,351.4,0.6,1.2,345.2,0.03,24.0,26.2,"07:11:52",1
"16/08/15","07:30",0.0,25.5,92.8,997.2,343.2,0.5,1.2,337.1,0.05,24.3,25.9,"07:20:16",1
"16/08/15","07:40",0.0,25.7,92.0,997.2,356.5,0.5,1.0,8.9,0.06,24.3,26.0,"07:32:48",1
"16/08/15","07:50",0.0,26.1,91.0,997.2,334.6,0.3,0.9,349.4,0.06,24.6,26.0,"07:46:08",1
"16/08/15","08:00",0.0,26.3,88.0,997.2,333.4,0.3,1.0,356.7,0.08,24.2,26.2,"07:58:16",1
"16/08/15","08:10",0.0,26.7,86.3,997.4,336.2,0.3,0.9,351.1,0.10,24.3,26.0,"08:01:44",1
"16/08/15","08:20",0.0,26.9,85.2,997.0,1.0,0.3,1.1,5.0,0.11,24.2,26.3,"08:12:56",1
"16/08/15","08:30",0.0,27.4,84.3,996.7,221.8,0.2,1.0,207.3,0.14,24.6,26.5,"08:26:56",1
"16/08/15","08:40",0.0,27.8,83.4,997.0,124.6,0.5,1.2,134.7,0.13,24.8,26.5,"08:35:36",1
"16/08/15","08:50",0.0,27.6,83.6,997.0,204.3,1.3,3.1,217.7,0.14,24.6,26.7,"08:46:24",1
"16/08/15","09:00",0.0,27.8,82.5,996.7,215.2,1.0,2.2,228.3,0.14,24.6,26.9,"08:53:04",1
"16/08/15","09:10",0.0,27.6,82.4,997.2,224.7,1.6,3.3,223.7,0.06,24.4,26.6,"09:01:20",1
"16/08/15","09:20",0.0,27.8,82.5,997.2,223.7,0.7,1.7,209.2,0.10,24.6,26.8,"09:10:16",1
"16/08/15","09:30",0.0,28.1,81.0,996.7,201.6,0.8,2.5,195.2,0.13,24.6,27.0,"09:24:08",1
"16/08/15","09:40",0.0,27.9,81.9,997.2,205.2,1.2,2.4,193.5,0.09,24.6,26.9,"09:35:36",1
"16/08/15","09:50",0.0,28.2,81.2,996.3,211.8,1.3,2.7,225.9,0.14,24.7,26.9,"09:47:28",1
"16/08/15","10:00",0.0,28.6,80.3,996.0,222.6,0.8,2.6,228.3,0.15,24.9,27.2,"09:59:52",1
"16/08/15","10:10",0.0,28.6,79.4,996.0,141.4,0.7,2.8,210.9,0.12,24.7,27.2,"10:00:08",1
"16/08/15","10:20",0.0,29.2,77.9,996.5,88.9,0.6,1.8,9.4,0.18,25.0,27.2,"10:10:02",1
"16/08/15","10:30",0.0,29.9,76.1,997.0,33.3,0.7,1.6,358.5,0.33,25.3,27.4,"10:20:08",1
"16/08/15","10:40",0.0,31.5,70.9,997.0,91.0,0.3,1.1,358.8,0.49,25.6,27.7,"10:30:02",1
"16/08/15","10:50",0.0,31.3,71.7,997.7,81.2,0.7,2.1,346.8,0.45,25.6,27.9,"10:41:52",1
"16/08/15","11:00",0.0,30.7,70.8,997.9,44.1,0.8,2.2,29.8,0.37,24.8,28.1,"10:53:44",1
"16/08/15","11:10",0.0,31.3,70.7,997.7,54.1,0.7,1.9,51.5,0.42,25.4,28.2,"11:09:20",1
"16/08/15","11:20",0.0,32.0,70.2,997.9,40.6,0.7,1.7,21.6,0.51,25.9,28.4,"11:11:52",1
"16/08/15","11:30",0.0,32.5,68.2,997.9,170.3,0.8,2.0,126.7,0.53,25.9,29.0,"11:26:56",1
"16/08/15","11:40",0.0,33.1,66.8,998.2,127.1,1.2,2.1,173.9,0.60,26.1,29.1,"11:37:12",1
"16/08/15","11:50",0.0,32.7,68.3,998.4,166.2,1.3,3.1,197.7,0.47,26.1,29.4,"11:45:36",1
"16/08/15","12:00",0.0,32.4,64.7,998.2,161.2,0.7,1.7,135.9,0.28,24.9,29.6,"11:50:48",1
"16/08/15","12:10",0.0,32.6,66.9,997.7,152.8,0.6,1.6,192.2,0.28,25.7,29.7,"12:09:12",1
"16/08/15","12:20",0.0,33.2,65.9,997.4,154.0,0.6,1.7,211.6,0.31,26.0,30.1,"12:11:36",1
"16/08/15","12:30",0.0,34.4,62.8,997.4,245.0,0.3,1.6,225.1,0.52,26.3,30.1,"12:22:40",1
"16/08/15","12:40",0.0,34.5,57.5,997.4,46.4,0.7,2.0,122.0,0.58,24.9,30.2,"12:34:56",1
"16/08/15","12:50",0.0,34.7,57.4,997.7,181.6,1.0,3.5,226.9,0.55,25.1,30.7,"12:49:28",1
"16/08/15","13:00",0.0,34.9,57.7,997.7,190.7,1.3,3.9,188.9,0.52,25.4,30.6,"12:50:02",1
"16/08/15","13:10",0.0,34.9,58.5,997.4,178.5,2.2,3.9,202.8,0.62,25.6,30.9,"13:06:48",1
"16/08/15","13:20",0.0,34.1,59.5,997.2,137.0,1.2,2.9,141.9,0.42,25.1,31.0,"13:10:56",1
"16/08/15","13:30",0.2,33.3,59.7,996.7,191.7,1.3,3.1,188.6,0.17,24.4,31.1,"13:29:44",1
"16/08/15","13:40",0.0,33.9,58.9,996.7,188.2,2.2,4.3,217.9,0.36,24.8,31.1,"13:39:36",1
"16/08/15","13:50",0.0,30.8,67.3,997.0,128.3,1.7,4.2,150.9,0.22,24.1,30.8,"13:43:04",1
"16/08/15","14:00",0.0,28.6,75.5,996.0,64.8,1.7,5.8,76.4,0.08,23.9,30.7,"13:52:24",1
"16/08/15","14:10",0.0,27.7,79.1,994.6,44.2,1.6,5.5,60.2,0.11,23.8,30.6,"14:03:36",1
"16/08/15","14:20",0.0,27.9,77.6,994.1,76.2,1.2,4.4,76.7,0.23,23.7,30.3,"14:10:32",1
"16/08/15","14:30",0.0,28.4,76.4,993.9,12.4,0.6,2.2,45.0,0.14,23.9,30.1,"14:21:36",1
"16/08/15","14:40",0.0,28.6,76.5,993.4,129.7,0.8,1.7,142.3,0.07,24.1,30.0,"14:33:52",1
"16/08/15","14:50",0.0,28.7,76.0,993.9,11.9,0.3,1.6,120.6,0.07,24.1,30.0,"14:40:08",1
"16/08/15","15:00",0.0,29.0,74.8,994.1,334.6,0.2,0.9,181.6,0.08,24.1,29.9,"14:59:28",1
"16/08/15","15:10",0.0,29.2,72.8,993.7,93.8,0.3,1.1,233.2,0.08,23.9,29.7,"15:04:16",1
"16/08/15","15:20",0.0,29.5,74.0,993.9,75.3,0.6,2.0,3.2,0.10,24.4,29.7,"15:19:04",1
"16/08/15","15:30",0.0,29.4,73.5,994.4,83.0,0.7,1.6,332.7,0.07,24.2,29.6,"15:20:56",1
"16/08/15","15:40",0.0,29.3,75.3,994.1,78.1,0.6,2.1,104.8,0.09,24.5,29.7,"15:39:52",1
"16/08/15","15:50",0.0,30.4,72.6,993.9,105.8,0.8,2.6,144.1,0.31,25.0,29.7,"15:46:24",1
"16/08/15","16:00",0.0,30.2,69.8,994.8,104.4,1.1,2.6,159.9,0.29,24.1,29.4,"15:57:36",1
"16/08/15","16:10",0.0,30.0,70.4,994.6,97.2,0.8,2.2,148.6,0.25,24.1,29.7,"16:03:36",1
"16/08/15","16:20",0.0,29.9,71.9,994.8,106.1,0.7,2.6,107.0,0.21,24.3,29.6,"16:16:56",1
"16/08/15","16:30",0.0,29.9,73.5,994.8,153.6,0.8,1.8,138.8,0.14,24.7,29.4,"16:20:40",1
"16/08/15","16:40",0.0,30.0,72.5,995.3,93.0,0.6,1.7,17.4,0.12,24.6,29.4,"16:33:20",1
"16/08/15","16:50",0.0,29.7,72.0,994.6,114.7,0.6,1.9,163.3,0.07,24.2,29.3,"16:49:44",1
"16/08/15","17:00",0.0,29.6,71.6,994.4,124.9,0.7,1.8,124.5,0.05,24.0,29.2,"16:56:56",1
"16/08/15","17:10",0.0,29.4,71.9,994.1,169.3,1.1,2.5,187.7,0.04,23.8,29.5,"17:01:52",1
"16/08/15","17:20",0.0,29.5,70.5,994.1,153.2,0.7,1.6,139.6,0.04,23.6,29.1,"17:13:20",1
"16/08/15","17:30",0.0,29.5,71.0,993.9,94.2,0.5,1.4,111.1,0.03,23.7,29.2,"17:27:04",1
"16/08/15","17:40",0.0,29.5,71.7,993.9,30.3,0.5,1.3,0.4,0.03,23.9,28.9,"17:39:12",1
"16/08/15","17:50",0.0,29.3,69.7,993.7,75.1,0.6,1.6,56.2,0.02,23.2,28.7,"17:43:52",1
"16/08/15","18:00",0.0,29.1,68.5,993.9,84.7,0.5,1.3,94.5,0.01,22.8,29.0,"17:53:36",1
"16/08/15","18:10",0.0,28.9,71.0,993.9,351.3,0.7,1.4,355.1,0.00,23.2,28.7,"18:01:28",1
"16/08/15","18:20",0.0,28.6,74.0,994.1,353.3,0.6,1.6,7.0,0.00,23.5,28.7,"18:16:32",1
"16/08/15","18:30",0.0,28.2,75.9,994.6,356.1,1.0,1.7,11.0,0.00,23.6,28.7,"18:21:20",1
"16/08/15","18:40",0.0,27.8,78.1,994.6,308.8,0.2,0.6,354.3,0.00,23.7,28.6,"18:31:04",1
"16/08/15","18:50",0.0,27.6,80.7,994.6,331.7,0.6,1.2,357.1,0.00,24.0,28.4,"18:46:08",1
"16/08/15","19:00",0.0,27.3,80.9,994.6,306.4,0.5,1.0,337.4,0.00,23.8,28.4,"18:51:12",1
"16/08/15","19:10",0.0,27.2,81.6,995.1,277.1,0.3,0.5,296.1,0.00,23.8,28.2,"19:08:08",1
"16/08/15","19:20",0.0,27.1,83.4,995.3,302.5,0.5,0.9,321.5,0.00,24.1,28.2,"19:14:32",1
"16/08/15","19:30",0.0,27.0,83.9,995.1,312.0,0.6,1.3,337.2,0.00,24.1,28.1,"19:23:28",1
"16/08/15","19:40",0.0,26.9,84.5,995.3,287.0,0.5,0.6,305.3,0.00,24.1,28.0,"19:36:32",1
"16/08/15","19:50",0.0,26.6,85.0,995.8,291.7,0.5,0.8,331.2,0.00,23.9,28.2,"19:40:08",1
"16/08/15","20:00",0.0,26.3,84.9,995.6,299.4,0.3,0.9,341.8,0.00,23.6,28.1,"19:58:08",1
"16/08/15","20:10",0.0,26.2,84.6,995.6,315.2,0.5,1.2,344.9,0.00,23.4,27.9,"20:01:28",1
"16/08/15","20:20",0.0,26.0,85.0,996.3,296.2,0.3,0.8,317.0,0.00,23.3,27.7,"20:13:44",1
"16/08/15","20:30",0.0,25.7,85.2,996.0,291.6,0.2,0.6,353.8,0.00,23.1,27.6,"20:27:28",1
"16/08/15","20:40",0.0,25.5,85.0,996.3,314.0,0.2,0.6,329.3,0.00,22.8,27.5,"20:30:56",1
"16/08/15","20:50",0.0,25.4,85.7,996.3,316.7,0.3,0.8,314.5,0.00,22.9,27.7,"20:45:28",1
"16/08/15","21:00",0.0,25.2,86.4,996.3,320.7,0.8,1.3,339.5,0.00,22.8,27.3,"20:55:36",1
"16/08/15","21:10",0.0,25.1,87.1,996.3,302.4,0.6,0.9,313.9,0.00,22.8,27.4,"21:08:32",1
"16/08/15","21:20",0.0,24.9,87.1,996.5,323.2,0.7,1.7,353.7,0.00,22.6,27.5,"21:14:40",1
"16/08/15","21:30",0.0,24.8,87.5,996.7,305.2,0.6,1.0,334.5,0.00,22.6,27.3,"21:26:40",1
"16/08/15","21:40",0.0,24.6,87.5,996.7,296.5,0.5,1.0,309.0,0.00,22.4,27.2,"21:36:24",1
"16/08/15","21:50",0.0,24.5,87.9,997.0,301.4,0.6,0.9,312.9,0.00,22.4,27.2,"21:47:36",1
"16/08/15","22:00",0.0,24.4,88.2,996.7,312.1,0.7,1.3,345.0,0.00,22.4,27.2,"21:52:48",1
"16/08/15","22:10",0.0,24.3,88.4,997.2,282.2,0.3,0.8,316.1,0.00,22.3,27.0,"22:04:40",1
"16/08/15","22:20",0.0,24.3,88.7,997.0,298.8,0.7,1.0,316.0,0.00,22.4,27.0,"22:12:40",1
"16/08/15","22:30",0.0,24.2,88.5,997.2,293.3,0.6,0.9,299.7,0.00,22.2,26.9,"22:28:32",1
"16/08/15","22:40",0.0,24.2,88.2,997.2,294.3,0.6,0.6,300.1,0.00,22.2,26.8,"22:30:08",1
"16/08/15","22:50",0.0,24.2,88.6,997.2,298.0,0.6,0.9,306.2,0.00,22.2,26.7,"22:42:08",1
"16/08/15","23:00",0.0,24.3,88.6,997.2,311.2,0.7,1.2,325.9,0.00,22.3,26.9,"22:54:40",1
"16/08/15","23:10",0.0,24.3,88.4,997.4,283.5,0.6,0.9,325.2,0.00,22.3,26.6,"23:00:48",1
"16/08/15","23:20",0.0,24.4,88.1,996.5,298.6,0.2,0.8,310.4,0.00,22.3,26.6,"23:10:32",1
"16/08/15","23:30",0.0,24.4,88.0,997.2,309.7,0.7,1.0,325.7,0.00,22.3,26.8,"23:26:56",1
"16/08/15","23:40",0.0,24.4,87.4,997.2,288.2,0.5,0.9,306.6,0.00,22.2,26.6,"23:38:08",1
"16/08/15","23:50",0.0,24.5,87.8,997.2,312.1,0.6,0.9,318.3,0.00,22.4,26.6,"23:43:04",1
"16/08/15","24:00",0.0,24.5,87.8,996.7,340.3,0.8,1.2,335.3,0.00,22.4,26.6,"23:57:52",1
